| time (UTC) | temp C | wind direction | speed KPH | gust KPH | rain 1hr cm | rain 24hr cm | rain mn cm | humidity % | barometer mb |
| 20260510023006 | 12 | 33 | 1.6 | 3.2 | 0.00 | 0.28 | 0.28 | 92 | 1010.6 |
| 20260510021525 | 12 | 161 | 0.0 | 3.2 | 0.00 | 0.28 | 0.28 | 92 | 1010.6 |
| 20260510020016 | 12 | 14 | 0.0 | 3.2 | 0.00 | 0.28 | 0.28 | 92 | 1010.4 |
| 20260510014523 | 12 | 352 | 0.0 | 0.0 | 0.00 | 0.28 | 0.28 | 90 | 1010.2 |
| 20260510013004 | 12 | 352 | 0.0 | 0.0 | 0.00 | 0.28 | 0.28 | 90 | 1010.2 |
| 20260510011508 | 12 | 352 | 0.0 | 3.2 | 0.00 | 0.28 | 0.28 | 89 | 1010.1 |
| 20260510010012 | 12 | 269 | 0.0 | 0.0 | 0.00 | 0.28 | 0.28 | 88 | 1010.0 |
| 20260510004525 | 13 | 269 | 0.0 | 3.2 | 0.00 | 0.28 | 0.28 | 86 | 1009.9 |
| 20260510003024 | 13 | 273 | 0.0 | 0.0 | 0.00 | 0.28 | 0.28 | 84 | 1009.8 |
| 20260510001509 | 13 | 273 | 0.0 | 3.2 | 0.00 | 0.28 | 0.28 | 82 | 1009.5 |
| 20260510000009 | 14 | 317 | 0.0 | 3.2 | 0.00 | 0.28 | 0.28 | 80 | 1009.3 |
| 20260509234515 | 15 | 290 | 0.0 | 1.6 | 0.00 | 0.28 | 0.28 | 77 | 1009.3 |
| 20260509233020 | 15 | 179 | 0.0 | 3.2 | 0.00 | 0.28 | 0.28 | 76 | 1009.2 |
| 20260509231523 | 15 | 59 | 0.0 | 3.2 | 0.00 | 0.28 | 0.28 | 79 | 1009.3 |
| 20260509230009 | 15 | 79 | 0.0 | 3.2 | 0.00 | 0.28 | 0.28 | 79 | 1009.2 |
| 20260509224511 | 15 | 165 | 0.0 | 1.6 | 0.00 | 0.28 | 0.28 | 78 | 1009.2 |
| 20260509223016 | 15 | 165 | 0.0 | 0.0 | 0.00 | 0.28 | 0.28 | 79 | 1009.2 |
| 20260509221523 | 15 | 173 | 0.0 | 4.8 | 0.00 | 0.28 | 0.28 | 78 | 1009.1 |
| 20260509220025 | 15 | 172 | 0.0 | 3.2 | 0.00 | 0.28 | 0.28 | 80 | 1009.3 |
| 20260509214510 | 15 | 173 | 0.0 | 3.2 | 0.00 | 0.28 | 0.28 | 82 | 1009.6 |
| 20260509213025 | 15 | 161 | 0.0 | 3.2 | 0.00 | 0.28 | 0.28 | 80 | 1009.9 |
| 20260509211520 | 14 | 146 | 0.0 | 3.2 | 0.00 | 0.28 | 0.28 | 82 | 1009.5 |
| 20260509210024 | 14 | 211 | 0.0 | 3.2 | 0.00 | 0.28 | 0.28 | 82 | 1009.7 |
| 20260509204530 | 14 | 211 | 0.0 | 3.2 | 0.00 | 0.28 | 0.28 | 84 | 1010.0 |
| 20260509203016 | 14 | 211 | 0.0 | 3.2 | 0.00 | 0.28 | 0.28 | 83 | 1010.2 |
| 20260509201518 | 15 | 200 | 1.6 | 4.8 | 0.00 | 0.28 | 0.28 | 83 | 1010.3 |
| 20260509200024 | 14 | 87 | 0.0 | 3.2 | 0.00 | 0.28 | 0.28 | 85 | 1010.3 |
| 20260509194503 | 14 | 177 | 0.0 | 3.2 | 0.00 | 0.28 | 0.28 | 85 | 1010.3 |
| 20260509193018 | 13 | 15 | 0.0 | 3.2 | 0.03 | 0.28 | 0.28 | 86 | 1010.5 |
| 20260509191518 | 13 | 15 | 0.0 | 3.2 | 0.05 | 0.28 | 0.28 | 87 | 1010.5 |
| 20260509190003 | 13 | 69 | 0.0 | 4.8 | 0.08 | 0.28 | 0.28 | 89 | 1010.7 |
| 20260509184512 | 12 | 189 | 0.0 | 3.2 | 0.08 | 0.28 | 0.28 | 89 | 1011.0 |
| 20260509183006 | 12 | 167 | 0.0 | 4.8 | 0.05 | 0.25 | 0.25 | 89 | 1011.5 |
| 20260509181511 | 12 | 167 | 0.0 | 0.0 | 0.05 | 0.23 | 0.23 | 90 | 1011.4 |
| 20260509180020 | 12 | 167 | 0.0 | 4.8 | 0.03 | 0.20 | 0.20 | 87 | 1011.4 |
| 20260509174502 | 12 | 167 | 0.0 | 3.2 | 0.05 | 0.20 | 0.20 | 88 | 1011.5 |
| 20260509173006 | 12 | 202 | 1.6 | 3.2 | 0.13 | 0.20 | 0.20 | 88 | 1011.6 |
| 20260509171509 | 12 | 202 | 0.0 | 3.2 | 0.15 | 0.18 | 0.18 | 88 | 1011.5 |
| 20260509170017 | 12 | 202 | 0.0 | 3.2 | 0.18 | 0.18 | 0.18 | 88 | 1011.3 |
| 20260509164519 | 12 | 202 | 0.0 | 3.2 | 0.15 | 0.15 | 0.15 | 86 | 1011.4 |
| 20260509163005 | 13 | 202 | 0.0 | 3.2 | 0.08 | 0.08 | 0.08 | 84 | 1011.4 |
| 20260509161508 | 13 | 202 | 1.6 | 4.8 | 0.03 | 0.03 | 0.03 | 82 | 1011.7 |
| 20260509160012 | 13 | 209 | 0.0 | 6.4 | 0.00 | 0.00 | 0.00 | 78 | 1011.8 |
| 20260509154518 | 14 | 211 | 3.2 | 6.4 | 0.00 | 0.00 | 0.00 | 72 | 1011.8 |
| 20260509153026 | 15 | 197 | 6.4 | 11.3 | 0.00 | 0.00 | 0.00 | 66 | 1011.9 |
| 20260509151508 | 15 | 175 | 4.8 | 9.7 | 0.00 | 0.00 | 0.00 | 67 | 1012.0 |
| 20260509150010 | 15 | 223 | 4.8 | 8.0 | 0.00 | 0.00 | 0.00 | 71 | 1011.8 |
| 20260509144514 | 15 | 204 | 3.2 | 9.7 | 0.00 | 0.00 | 0.00 | 72 | 1011.7 |
| 20260509143019 | 15 | 189 | 3.2 | 8.0 | 0.00 | 0.00 | 0.00 | 71 | 1011.7 |
| 20260509141526 | 15 | 205 | 3.2 | 4.8 | 0.00 | 0.00 | 0.00 | 71 | 1011.1 |
| 20260509140011 | 15 | 180 | 1.6 | 3.2 | 0.00 | 0.00 | 0.00 | 73 | 1011.2 |
| 20260509134512 | 15 | 196 | 0.0 | 3.2 | 0.00 | 0.00 | 0.00 | 74 | 1011.2 |
| 20260509133020 | 14 | 192 | 0.0 | 3.2 | 0.00 | 0.00 | 0.00 | 75 | 1011.3 |
| 20260509131522 | 13 | 138 | 1.6 | 3.2 | 0.00 | 0.00 | 0.00 | 75 | 1011.2 |
| 20260509130036 | 13 | 38 | 0.0 | 3.2 | 0.00 | 0.00 | 0.00 | 76 | 1011.3 |
| 20260509124511 | 13 | 33 | 0.0 | 3.2 | 0.00 | 0.00 | 0.00 | 77 | 1011.2 |
| 20260509123018 | 13 | 180 | 0.0 | 3.2 | 0.00 | 0.00 | 0.00 | 77 | 1011.2 |
| 20260509121525 | 12 | 20 | 0.0 | 3.2 | 0.00 | 0.00 | 0.00 | 78 | 1011.3 |
| 20260509120024 | 12 | 20 | 0.0 | 3.2 | 0.00 | 0.00 | 0.00 | 78 | 1011.3 |
| 20260509114528 | 12 | 20 | 0.0 | 3.2 | 0.00 | 0.00 | 0.00 | 79 | 1011.2 |
| 20260509113012 | 11 | 20 | 0.0 | 3.2 | 0.00 | 0.00 | 0.00 | 84 | 1011.2 |
| 20260509111520 | 11 | 20 | 0.0 | 3.2 | 0.00 | 0.00 | 0.00 | 87 | 1011.0 |
| 20260509110024 | 10 | 20 | 0.0 | 3.2 | 0.00 | 0.00 | 0.00 | 86 | 1011.0 |
| 20260509104509 | 10 | 20 | 0.0 | 3.2 | 0.00 | 0.00 | 0.00 | 87 | 1010.7 |
| 20260509103011 | 10 | 20 | 0.0 | 3.2 | 0.00 | 0.00 | 0.00 | 86 | 1010.9 |
| 20260509101523 | 10 | 20 | 0.0 | 3.2 | 0.00 | 0.00 | 0.00 | 85 | 1010.8 |
| 20260509100004 | 10 | 88 | 1.6 | 3.2 | 0.00 | 0.00 | 0.00 | 85 | 1010.7 |
| 20260509094503 | 10 | 135 | 0.0 | 3.2 | 0.00 | 0.00 | 0.00 | 86 | 1010.8 |
| 20260509093008 | 10 | 146 | 0.0 | 3.2 | 0.00 | 0.00 | 0.00 | 86 | 1010.8 |
| 20260509091514 | 10 | 146 | 0.0 | 3.2 | 0.00 | 0.00 | 0.00 | 86 | 1011.1 |
| 20260509090032 | 10 | 148 | 0.0 | 3.2 | 0.00 | 0.00 | 0.00 | 87 | 1011.2 |
| 20260509084504 | 10 | 148 | 0.0 | 3.2 | 0.00 | 0.00 | 0.00 | 86 | 1011.3 |
| 20260509083020 | 9 | 148 | 0.0 | 3.2 | 0.00 | 0.00 | 0.00 | 87 | 1011.3 |
| 20260509081512 | 10 | 148 | 0.0 | 3.2 | 0.00 | 0.00 | 0.00 | 86 | 1011.6 |
| 20260509080020 | 10 | 148 | 0.0 | 0.0 | 0.00 | 0.00 | 0.00 | 85 | 1011.6 |
| 20260509074522 | 10 | 148 | 0.0 | 0.0 | 0.00 | 0.00 | 0.00 | 85 | 1011.6 |
| 20260509073007 | 10 | 148 | 0.0 | 3.2 | 0.00 | 0.00 | 0.00 | 84 | 1011.6 |
| 20260509071511 | 10 | 111 | 0.0 | 0.0 | 0.00 | 0.00 | 0.00 | 83 | 1011.4 |
| 20260509070015 | 10 | 111 | 0.0 | 1.6 | 0.00 | 0.00 | 0.00 | 83 | 1011.4 |
| 20260509064520 | 10 | 97 | 0.0 | 3.2 | 0.00 | 0.00 | 0.00 | 83 | 1011.3 |
| 20260509063026 | 10 | 115 | 0.0 | 3.2 | 0.00 | 0.00 | 0.00 | 83 | 1011.4 |
| 20260509061508 | 10 | 114 | 0.0 | 0.0 | 0.00 | 0.00 | 0.00 | 82 | 1011.6 |
| 20260509060012 | 10 | 114 | 0.0 | 3.2 | 0.00 | 0.00 | 0.00 | 82 | 1011.9 |
| 20260509054516 | 10 | 109 | 0.0 | 0.0 | 0.00 | 0.00 | 0.00 | 81 | 1012.2 |
| 20260509053031 | 11 | 104 | 0.0 | 0.0 | 0.00 | 0.00 | 0.00 | 79 | 1012.3 |
| 20260509051526 | 11 | 104 | 0.0 | 0.0 | 0.00 | 0.00 | 0.00 | 78 | 1012.3 |
| 20260509050012 | 11 | 104 | 0.0 | 0.0 | 0.00 | 0.00 | 0.00 | 78 | 1012.3 |
| 20260509044518 | 11 | 104 | 0.0 | 3.2 | 0.00 | 0.00 | 0.00 | 77 | 1012.3 |
| 20260509043019 | 12 | 105 | 0.0 | 3.2 | 0.00 | 0.00 | 0.00 | 77 | 1012.1 |
| 20260509041503 | 12 | 33 | 1.6 | 3.2 | 0.00 | 0.00 | 0.00 | 76 | 1012.6 |
| 20260509040014 | 12 | 160 | 0.0 | 0.0 | 0.00 | 0.00 | 0.00 | 74 | 1013.0 |
| 20260509034513 | 12 | 160 | 0.0 | 3.2 | 0.00 | 0.00 | 0.00 | 75 | 1013.1 |
| 20260509033015 | 11 | 160 | 0.0 | 3.2 | 0.00 | 0.00 | 0.00 | 77 | 1013.0 |
| 20260509031532 | 11 | 160 | 0.0 | 0.0 | 0.00 | 0.00 | 0.00 | 76 | 1012.4 |
| 20260509030005 | 12 | 160 | 0.0 | 3.2 | 0.00 | 0.00 | 0.00 | 73 | 1012.6 |
| 20260509024510 | 12 | 160 | 0.0 | 3.2 | 0.00 | 0.00 | 0.00 | 72 | 1012.4 |